Location: Loreto Aprutino
(42.4333°N, 13.9833°E)
Time: 15:28:42
(UTC+00:00)

Daily predictions for brighter satellites

Satellite Brightness Start Highest point End
(mag) Time Altitude Azimuth Time Altitude Azimuth Time Altitude Azimuth
Cosmos 1269 Rocket 4.1 15:53:36 10° SSW 15:58:54 79° ESE 16:04:13 10° NNE
COBE Rocket 4.5 15:55:03 10° NNE 15:59:17 34° E 16:03:30 10° SSE
Cosmos 1707 Rocket 3.9 15:55:10 10° SSE 15:59:26 46° E 16:03:43 10° NNE
Cosmos 494 Rocket 4.1 15:54:26 10° SSW 15:59:42 85° WNW 16:05:01 10° NNE
SL-8 R/B 3.7 15:58:49 10° WNW 16:03:39 75° NNE 16:08:29 10° ESE
Cosmos 1782 2.9 16:01:41 10° S 16:05:40 82° W 16:09:41 10° N
Cosmos 44 Rocket 3.3 16:03:05 10° NW 16:07:48 84° WSW 16:12:31 10° SSE
Cosmos 1315 Rocket 2.8 16:05:22 10° S 16:09:18 80° E 16:13:20 10° NNE
Cosmos 2333 4.3 16:04:07 10° SSW 16:09:49 84° ESE 16:15:36 10° NNE
STARLINK-67 3.8 16:08:48 10° W 16:11:22 34° NNW 16:13:57 10° NE
CZ-4B R/B 4.0 16:07:03 10° S 16:12:14 56° W 16:17:32 10° NNW
YAOGAN 6 4.3 16:10:25 10° E 16:12:14 14° ENE 16:14:05 10° NE
ATLAS 2AS CENTAUR R/B 3.5 16:05:09 10° SW 16:13:01 62° NW 16:20:58 10° NNE
IRS-1C Rocket 4.1 16:08:11 10° SSE 16:13:24 66° ENE 16:18:38 10° N
Meteor 2-6 Rocket 4.2 16:08:23 10° S 16:13:40 60° E 16:18:59 10° NNE
Cosmos 2322 3.9 16:09:43 10° SSW 16:15:25 76° WNW 16:21:09 10° NNE
Cosmos 1346 Rocket 2.7 16:12:24 10° N 16:16:22 85° E 16:20:22 10° S
COSMO-SKYMED 1 3.9 16:17:27 10° NE 16:20:48 21° E 16:24:07 10° SE
Meteor 1-10 Rocket 4.2 16:15:45 10° S 16:21:11 61° E 16:26:41 10° NNE
Cosmos 1302 Rocket 4.0 16:17:23 10° NNW 16:22:39 66° ENE 16:27:51 10° SSE
Cosmos 2251 Rocket 4.2 16:18:25 10° SSE 16:23:13 36° ESE 16:28:02 10° NE
Shenzhou-11 Module 1.9 16:22:38 10° WSW 16:25:21 64° SSE 16:27:23 16° E
STARLINK-46 2.6 16:24:23 10° SW 16:27:05 66° SE 16:29:01 17° ENE
Cosmos 2278 Rocket 2.7 16:23:08 10° N 16:28:21 36° ENE 16:33:31 10° ESE
SMAP 3.0 16:23:44 10° SSE 16:28:23 80° ENE 16:33:03 10° N
Atlas Centaur 2 4.3 16:22:01 10° WSW 16:28:48 34° S 16:36:12 10° ESE
YAOGAN 1 3.9 16:26:49 10° ESE 16:29:42 18° ENE 16:32:36 10° NNE
Cosmos 2360 Rocket 3.7 16:29:22 10° WSW 16:34:26 33° NW 16:39:33 10° N
Cosmos 1666 4.1 16:32:42 10° NNE 16:35:17 18° ENE 16:37:51 10° ESE
Meteor 1-11 Rocket 3.9 16:31:59 10° N 16:37:53 58° ENE 16:43:43 10° SSE
RESURS DK-1 2.3 16:34:33 10° SSW 16:38:39 76° ESE 16:42:28 12° NNE
SL-16 R/B 3.8 16:37:56 10° SE 16:40:41 14° E 16:40:50 14° E
Cosmos 2333 Rocket 2.4 16:35:42 10° SSW 16:41:26 79° WNW 16:47:14 10° NNE
Meteor 1-27 Rocket 3.8 16:37:26 10° S 16:42:59 58° E 16:48:41 10° NNE
Cosmos 304 Rocket 3.8 16:39:18 10° NNW 16:44:08 83° WSW 16:48:56 10° SSE
USA 215 4.3 16:41:19 11° NE 16:46:53 34° NNW 16:52:36 10° W
Cosmos 1733 Rocket 2.9 16:43:10 10° N 16:47:33 76° E 16:51:56 10° SSE
Envisat 2.9 16:45:38 10° SSE 16:50:39 67° ENE 16:55:43 10° N
Okean 1-7 4.3 16:48:23 10° SE 16:51:21 21° E 16:51:21 21° E
CENTAUR R/B 4.0 16:43:51 10° NW 16:51:47 55° WSW 17:00:12 10° SSE
ERBS 2.3 16:48:32 10° NW 16:51:52 79° SW 16:55:13 10° SE
NOSS 2 (A) 4.1 16:51:13 10° NNW 16:53:26 47° NE 16:53:26 47° NE
Cosmos 2237 Rocket 2.4 16:48:13 10° S 16:53:41 50° ESE 16:57:53 17° NE
Cosmos 1812 2.7 16:54:09 10° S 16:58:00 86° W 17:01:54 10° N
Exosat Rocket 3.5 16:53:35 10° SSW 16:59:15 88° ESE 17:03:51 12° NNE
Cosmos 1092 Rocket 4.0 16:59:57 10° S 17:06:06 58° E 17:12:16 10° NNE
CZ-4 R/B 1.4 17:04:32 10° SSE 17:08:21 52° ENE 17:12:09 10° N
SKYMED 2 3.5 17:05:22 13° NNE 17:09:10 71° ESE 17:13:29 10° S
Cosmos 1992 Rocket 3.9 17:04:31 10° NNW 17:09:44 65° ENE 17:14:55 10° SSE
Cosmos 1536 2.7 17:06:25 10° N 17:10:27 74° E 17:14:26 10° SSE
Cosmos 2219 Rocket 3.1 17:07:14 10° SW 17:12:35 46° WNW 17:18:01 10° NNE
Cosmos 2242 Rocket 3.5 17:08:20 10° S 17:12:52 79° E 17:17:13 11° N
NOSS 0 Rocket 3.9 17:09:46 10° SSW 17:15:59 87° WNW 17:21:05 16° NNE
Okean-O 3.4 17:13:31 10° S 17:17:52 55° W 17:22:14 10° NNW
Cosmos 1862 Rocket 4.3 17:16:43 10° SSW 17:20:56 51° W 17:25:13 10° N
Cosmos 1263 4.0 17:18:29 10° S 17:21:48 89° NE 17:21:51 86° NNE
Aureole 1 Rocket 4.0 17:20:08 10° S 17:21:21 21° SSE 17:21:21 21° SSE
Cosmos 1703 Rocket 3.6 17:18:51 10° S 17:23:13 58° E 17:24:19 44° NE
Cosmos 1980 3.6 17:18:01 10° SSW 17:23:40 88° WNW 17:27:28 22° NNE
Lacrosse 5 rocket 1.8 17:21:28 10° WSW 17:25:43 57° NW 17:26:52 40° NNE
Cosmos 2297 4.4 17:22:16 10° N 17:26:43 33° NE 17:26:43 33° NE
BREEZE-M DEB (TANK) 2.2 17:23:51 10° WNW 17:27:30 55° NNW 17:27:30 55° NNW
CZ-4 R/B 4.5 17:24:54 10° S 17:29:03 80° WSW 17:33:14 10° NNW
ATLAS 3B R/B 4.3 17:24:21 10° NW 17:30:21 35° WSW 17:36:29 10° S
ISS -2.6 17:27:58 10° NW 17:30:13 34° NNW 17:30:13 34° NNW
STARLINK-60 4.4 17:30:30 10° SSW 17:32:39 32° S 17:32:39 32° S
COSMOS 2428 4.2 17:29:07 10° WSW 17:34:12 33° NW 17:39:20 10° N
SL-4 R/B 3.1 17:33:17 10° W 17:36:44 31° NNW 17:36:58 31° N
CSL-04 Rocket 3.5 17:31:54 10° SSE 17:37:11 82° ENE 17:42:29 10° NNW
Cosmos 1943 Rocket 4.3 17:34:15 10° N 17:34:39 11° N 17:34:39 11° N
DMSP B5D1-3 4.4 17:41:45 59° ENE 17:42:18 64° ESE 17:47:22 10° S
YAOGAN 6 4.0 17:42:08 10° SSW 17:45:24 37° W 17:48:43 10° NNW
Cosmos 1900 4.1 17:42:58 10° NNW 17:47:54 84° ENE 17:48:10 78° ESE
CSL-04 Debris 4.2 17:42:39 10° S 17:48:07 80° WSW 17:53:36 10° NNW
Cosmos 1553 Rocket 4.1 17:46:58 10° N 17:59:34 10° SSE 17:52:40 55° ENE
Cosmos 1428 Rocket 4.3 17:48:51 10° S 17:55:00 85° E 17:59:07 23° N
COSMO-SKYMED 1 4.1 17:53:53 15° N 17:57:02 35° WNW 18:00:58 10° SW
YAOGAN 1 3.6 18:01:19 10° S 18:05:27 45° W 18:09:37 10° NNW
NOAA 11 4.3 18:01:04 10° S 18:06:30 74° WSW 18:11:59 10° NNW
Cosmos 2026 Rocket 4.2 18:04:45 10° SSW 18:10:46 64° W 18:15:46 15° N
Cosmos 2278 Rocket 3.7 18:07:18 10° NW 18:12:22 34° WSW 18:17:24 10° SSW
SL-16 R/B 2.6 18:18:19 10° SSW 18:22:46 57° SW 18:22:46 57° SW
Cosmos 2237 Rocket 4.0 18:33:15 10° WSW 18:38:00 27° NW 18:39:45 23° NNW
